Weather History for Sturgis, MI

Change the Weather History Date:

Thursday, January 30, 2014

  Actual Average (KHAI) Record (KHAI)
Temperature  
Mean Temperature 20 °F -  
Max Temperature 28 °F 31 °F 54 °F (2013)
Min Temperature 12 °F 17 °F -12 °F (1951)
Degree Days  
Heating Degree Days 45    
Moisture  
Dew Point 10 °F    
Average Humidity 67    
Maximum Humidity 93    
Minimum Humidity 54    
Precipitation  
Precipitation 0.00 in - - ()
Sea Level Pressure  
Sea Level Pressure 29.91 in    
Wind  
Wind Speed 16 mph (SSW)    
Max Wind Speed 26 mph    
Max Gust Speed 34 mph    
Visibility 8 miles    
Events Snow    
Averages and records for this station are not official NWS values.
T = Trace of Precipitation, MM = Missing Value Source: NWS Daily Summary

Daily Weather History Graph

Daily Weather History Graph

Search for Another Location

Airport:

Trip Planner

Search our weather history database for the weather conditions in past years. The results will help you decide how hot, cold, wet, or windy it might be!

Date:

Astronomy

Jan. 30, 2014 Rise Set
Actual Time 7:56 AM EST 5:54 PM EST
Civil Twilight 7:26 AM EST 6:24 PM EST
Nautical Twilight 6:53 AM EST 6:57 PM EST
Astronomical Twilight 6:20 AM EST 7:30 PM EST
Moon 7:20 AM EST (1/30) 6:06 PM EST (1/30)
Length of Visible Light 10h 57m
Length of Day
9h 58m
Waning Crescent, 0% of the Moon is Illuminated
Jan 30
Waning Crescent
Jan 30
New
Feb 6
First Quarter
Feb 14
Full
Feb 22
Last Quarter

Hourly Weather History & Observations

Time (EST) Temp. Windchill Dew Point Humidity Pressure Visibility Wind Dir Wind Speed Gust Speed Precip Events Conditions
12:14 AM 12.2 °F -2.5 °F 3.2 °F 67% 30.09 in 10.0 mi SSW 12.7 mph - N/A   Clear
12:35 AM 14.0 °F -1.4 °F 3.2 °F 62% 30.08 in 10.0 mi South 15.0 mph - N/A   Clear
12:55 AM 14.0 °F -0.8 °F 3.2 °F 62% 30.07 in 10.0 mi South 13.8 mph - N/A   Clear
1:14 AM 14.0 °F -0.2 °F 3.2 °F 62% 30.06 in 10.0 mi South 12.7 mph - N/A   Clear
1:35 AM 14.0 °F -1.4 °F 3.2 °F 62% 30.06 in 10.0 mi SSW 15.0 mph - N/A   Clear
1:55 AM 14.0 °F -2.5 °F 1.4 °F 57% 30.06 in 10.0 mi SSW 17.3 mph - N/A   Clear
2:14 AM 14.0 °F -0.8 °F 1.4 °F 57% 30.06 in 10.0 mi SSW 13.8 mph - N/A   Clear
2:35 AM 14.0 °F -3.0 °F 1.4 °F 57% 30.05 in 10.0 mi SSW 18.4 mph - N/A   Clear
2:55 AM 14.0 °F -2.5 °F 1.4 °F 57% 30.05 in 10.0 mi SSW 17.3 mph - N/A   Clear
3:14 AM 14.0 °F -1.4 °F 1.4 °F 57% 30.06 in 10.0 mi SSW 15.0 mph - N/A   Clear
3:35 AM 12.2 °F -3.7 °F 1.4 °F 62% 30.06 in 10.0 mi SSW 15.0 mph - N/A   Clear
3:54 AM 14.0 °F -2.0 °F 1.4 °F 57% 30.05 in 10.0 mi SSW 16.1 mph - N/A   Clear
4:15 AM 14.0 °F -1.4 °F 1.4 °F 57% 30.04 in 10.0 mi South 15.0 mph - N/A   Clear
4:35 AM 14.0 °F -1.4 °F 1.4 °F 57% 30.03 in 10.0 mi South 15.0 mph - N/A   Clear
4:54 AM 12.2 °F -3.7 °F 1.4 °F 62% 30.03 in 10.0 mi South 15.0 mph - N/A   Clear
5:15 AM 12.2 °F -1.8 °F 1.4 °F 62% 30.03 in 10.0 mi South 11.5 mph - N/A   Clear
5:35 AM 12.2 °F -1.8 °F 1.4 °F 62% 30.03 in 10.0 mi South 11.5 mph - N/A   Clear
5:55 AM 12.2 °F -3.1 °F 1.4 °F 62% 30.03 in 10.0 mi South 13.8 mph 20.7 mph N/A   Clear
6:15 AM 12.2 °F -2.5 °F 1.4 °F 62% 30.02 in 10.0 mi South 12.7 mph - N/A   Clear
6:34 AM 12.2 °F -3.1 °F 1.4 °F 62% 30.02 in 10.0 mi South 13.8 mph - N/A   Clear
6:55 AM 14.0 °F -0.2 °F 1.4 °F 57% 30.02 in 10.0 mi South 12.7 mph - N/A   Clear
7:15 AM 14.0 °F -0.8 °F 1.4 °F 57% 30.01 in 10.0 mi South 13.8 mph - N/A   Clear
7:34 AM 14.0 °F -1.4 °F 1.4 °F 57% 30.00 in 10.0 mi South 15.0 mph - N/A   Clear
7:55 AM 15.8 °F -0.2 °F 3.2 °F 58% 29.99 in 10.0 mi South 17.3 mph - N/A   Clear
8:15 AM 15.8 °F -1.1 °F 3.2 °F 58% 30.00 in 10.0 mi South 19.6 mph 25.3 mph N/A   Clear
8:35 AM 15.8 °F -1.1 °F 3.2 °F 58% 30.01 in 10.0 mi South 19.6 mph 26.5 mph N/A   Clear
8:55 AM 17.6 °F 2.7 °F 5.0 °F 58% 29.98 in 10.0 mi South 16.1 mph 24.2 mph N/A   Clear
9:15 AM 17.6 °F 0.9 °F 5.0 °F 58% 29.97 in 10.0 mi South 20.7 mph 26.5 mph N/A   Clear
9:35 AM 17.6 °F 2.2 °F 6.8 °F 63% 29.97 in 10.0 mi South 17.3 mph 26.5 mph N/A   Clear
9:55 AM 17.6 °F 0.1 °F 6.8 °F 63% 29.97 in 7.0 mi South 23.0 mph 27.6 mph N/A   Clear
10:15 AM 19.4 °F 2.8 °F 6.8 °F 58% 29.96 in 7.0 mi South 21.9 mph 27.6 mph N/A   Clear
10:35 AM 19.4 °F 4.1 °F 8.6 °F 63% 29.97 in 7.0 mi South 18.4 mph 24.2 mph N/A   Clear
10:55 AM 19.4 °F 2.8 °F 8.6 °F 63% 29.95 in 7.0 mi South 21.9 mph 25.3 mph N/A   Clear
11:15 AM 21.2 °F 5.6 °F 8.6 °F 58% 29.94 in 7.0 mi South 20.7 mph 31.1 mph N/A   Clear
11:35 AM 21.2 °F 6.0 °F 8.6 °F 58% 29.93 in 10.0 mi South 19.6 mph 23.0 mph N/A   Clear
11:55 AM 21.2 °F 6.0 °F 8.6 °F 58% 29.92 in 10.0 mi South 19.6 mph 24.2 mph N/A   Clear
12:15 PM 21.2 °F 6.4 °F 8.6 °F 58% 29.89 in 10.0 mi South 18.4 mph - N/A   Clear
12:35 PM 21.2 °F 6.0 °F 10.4 °F 63% 29.87 in 10.0 mi South 19.6 mph 24.2 mph N/A   Clear
12:53 PM 21.2 °F 6.0 °F 10.4 °F 63% 29.87 in 10.0 mi South 19.6 mph 26.5 mph N/A   Clear
1:15 PM 23.0 °F 8.3 °F 10.4 °F 59% 29.83 in 10.0 mi South 19.6 mph 28.8 mph N/A   Clear
1:35 PM 23.0 °F 8.0 °F 10.4 °F 59% 29.82 in 10.0 mi South 20.7 mph - N/A   Scattered Clouds
1:54 PM 23.0 °F 7.6 °F 10.4 °F 59% 29.80 in 5.0 mi South 21.9 mph 31.1 mph N/A   Haze
2:15 PM 24.8 °F 8.7 °F 10.4 °F 54% 29.77 in 4.0 mi South 26.5 mph 34.5 mph N/A   Haze
2:35 PM 24.8 °F 9.6 °F 10.4 °F 54% 29.74 in 5.0 mi South 23.0 mph 31.1 mph N/A   Haze
2:55 PM 24.8 °F 10.0 °F 10.4 °F 54% 29.74 in 7.0 mi South 21.9 mph 32.2 mph N/A   Clear
3:15 PM 24.8 °F 11.1 °F 10.4 °F 54% 29.72 in 10.0 mi South 18.4 mph 26.5 mph N/A   Scattered Clouds
3:35 PM 24.8 °F 10.0 °F 10.4 °F 54% 29.72 in 10.0 mi South 21.9 mph 29.9 mph N/A   Scattered Clouds
3:54 PM 24.8 °F 9.3 °F 12.2 °F 59% 29.76 in 4.0 mi SSW 24.2 mph 31.1 mph N/A   Haze
4:15 PM 24.8 °F 11.5 °F 12.2 °F 59% 29.75 in 7.0 mi SSW 17.3 mph 28.8 mph N/A   Scattered Clouds
4:35 PM 24.8 °F 10.0 °F 12.2 °F 59% 29.74 in 7.0 mi South 21.9 mph 29.9 mph N/A   Scattered Clouds
4:54 PM 24.8 °F 10.3 °F 12.2 °F 59% 29.77 in 10.0 mi SSW 20.7 mph 26.5 mph N/A   Scattered Clouds
5:15 PM 24.8 °F 11.1 °F 12.2 °F 59% 29.78 in 7.0 mi SSW 18.4 mph 29.9 mph N/A   Clear
5:35 PM 23.0 °F 6.9 °F 15.8 °F 74% 29.79 in 1.2 mi SSW 24.2 mph 28.8 mph N/A Snow Light Snow
5:55 PM 21.2 °F 7.3 °F 19.4 °F 93% 29.79 in 1.0 mi SSW 16.1 mph - N/A Snow Snow
6:15 PM 21.2 °F 7.8 °F 19.4 °F 93% 29.79 in 1.0 mi SSW 15.0 mph 21.9 mph N/A Snow Snow
6:35 PM 21.2 °F 7.8 °F 19.4 °F 93% 29.79 in 5.0 mi SSW 15.0 mph 20.7 mph N/A Snow Light Snow
6:55 PM 23.0 °F 10.6 °F 21.2 °F 93% 29.79 in 10.0 mi SSW 13.8 mph - N/A   Overcast
7:15 PM 24.8 °F 11.5 °F 21.2 °F 86% 29.79 in 7.0 mi SSW 17.3 mph - N/A   Overcast
7:35 PM 24.8 °F 10.7 °F 23.0 °F 93% 29.79 in 4.0 mi SSW 19.6 mph 26.5 mph N/A Snow Light Snow
7:55 PM 26.6 °F 13.1 °F 23.0 °F 86% 29.80 in 5.0 mi SSW 19.6 mph 23.0 mph N/A   Overcast
8:15 PM 26.6 °F 13.4 °F 23.0 °F 86% 29.80 in 7.0 mi SSW 18.4 mph - N/A   Overcast
8:35 PM 26.6 °F 13.1 °F 23.0 °F 86% 29.80 in 7.0 mi SW 19.6 mph 25.3 mph N/A   Overcast
8:54 PM 26.6 °F 12.7 °F 24.8 °F 93% 29.80 in 5.0 mi SW 20.7 mph - N/A   Overcast
9:15 PM 26.6 °F 13.8 °F 24.8 °F 93% 29.81 in 7.0 mi SW 17.3 mph 23.0 mph N/A   Overcast
9:35 PM 26.6 °F 14.7 °F 24.8 °F 93% 29.81 in 10.0 mi SW 15.0 mph - N/A   Overcast
9:55 PM 28.4 °F 16.2 °F 24.8 °F 86% 29.80 in 10.0 mi SW 17.3 mph - N/A   Overcast
10:15 PM 28.4 °F 17.0 °F 24.8 °F 86% 29.81 in 10.0 mi SW 15.0 mph - N/A   Overcast
10:34 PM 28.4 °F 17.5 °F 24.8 °F 86% 29.82 in 10.0 mi SW 13.8 mph - N/A   Overcast
10:55 PM 28.4 °F 17.0 °F 24.8 °F 86% 29.82 in 10.0 mi SW 15.0 mph - N/A   Overcast
11:15 PM 28.4 °F 17.0 °F 23.0 °F 80% 29.82 in 10.0 mi SW 15.0 mph - N/A   Overcast
11:34 PM 28.4 °F 17.0 °F 23.0 °F 80% 29.82 in 10.0 mi SW 15.0 mph - N/A   Overcast
11:55 PM 28.4 °F 18.0 °F 23.0 °F 80% 29.82 in 10.0 mi SW 12.7 mph - N/A   Overcast